Location: Milton Keynes
(52.0316°N, 0.7531°W)
Time: 05:16:57
(UTC+00:00)

OTV 5 (USA 277) - Pass Details

Date: 01 February 2019
Orbit: 342 x 346 km, 54.5° (Epoch: 17 February)

Event Time Altitude Azimuth Distance (km) Brightness Sun altitude
Exits shadow 06:07:07 38° 256° (WSW) 540 ? -14.9°
Maximum altitude 06:08:04 83° 341° (NNW) 351 ? -14.7°
Drops below altitude 10° 06:10:58 10° 69° (ENE) 1,300 ? -14.3°
Sets 06:12:58 0° 71° (ENE) 2,142 ? -14.0°
